User: anonymous
Location: Unspecified
(0.0000°N, 0.0000°E)
Time: 18:12:16
(UTC+00:00)
Language:

AGILE - Orbit

View from above orbital plane
View from above orbital plane
View from above satellite
View from above satellite

Ground track
Ground track

The orbit data is extracted from the following two-line orbital elements,

1 31135U 07013A   14107.50318080  .00009575  00000-0  39112-3 0  9481
2 31135 002.4684 060.4135 0016812 109.1555 251.0319 15.19295067386757
Epoch (UTC): 17 April 2014 12:04:34
Eccentricity: 0.0016812
inclination: 2.4684°
perigee height: 496 km
apogee height: 519 km
right ascension of ascending node: 60.4135°
argument of perigee: 109.1555°
revolutions per day: 15.19295067
mean anomaly at epoch: 251.0319°
orbit number at epoch: 38675

The dashed part of the orbit path shows where the satellite is in the earth's shadow,  

DLR